RH
74 72 70 68 75 85 87 88 84 86 85 87 84 83 83 86 80 56 57 57 57 59 64 65 72 77 76 79 79 85 85 86 95 95 82 88 83 88 77 78 88 92 78
70 71 76 84 84 88 86 78 75 69 76 67 75 78 78 71 70 65 67 65 64 63 62 70 71 70 72 80 90 94 94 96 96 96 97 95 76 83 57 74 75 92 90
73 75 77 88 86 79 67 62 64 64 66 69 70 73 74 74 70 71 72 70 66 66 68 74 81 88 91 95 94 94 91 96 95 93 92 91 95 87 74 62 81 89 84
68 69 75 72 69 72 69 64 64 64 63 64 67 66 70 70 76 76 76 74 69 72 77 83 88 92 93 93 94 88 94 94 96 95 82 93 96 98 96 80 78 80 78
66 64 60 61 64 69 69 69 66 65 68 69 72 74 75 75 74 74 75 73 74 79 82 85 89 91 94 94 95 96 96 96 96 97 97 96 97 96 96 92 80 73 81
67 64 68 64 69 74 68 63 59 64 71 72 72 72 71 70 72 76 77 77 80 91 89 85 89 91 92 93 95 95 94 96 97 97 97 85 81 80 85 86 94 93 86
70 70 68 64 64 68 66 62 64 72 71 69 69 70 72 74 77 82 82 80 84 94 90 87 88 92 92 91 92 93 94 96 97 96 98 96 95 92 93 97 96 93 82
57 60 61 64 65 63 65 65 71 68 58 54 58 63 63 68 73 78 84 86 88 89 89 91 92 90 89 90 90 94 95 95 97 95 96 98 98 95 90 93 99 95 88
57 54 64 62 54 59 68 68 58 51 52 54 57 58 62 67 76 78 82 84 86 84 91 92 92 91 92 92 91 96 95 95 96 96 96 97 97 98 98 99 97 97 92
57 59 64 59 59 66 63 59 50 48 49 51 55 55 62 74 77 82 82 84 84 83 86 89 91 93 92 92 92 92 90 91 94 94 93 91 90 85 88 86 90 91 89
67 63 60 57 54 53 48 49 46 45 47 46 53 61 62 75 81 83 84 87 88 88 89 89 91 90 86 85 88 86 80 76 75 76 75 74 71 72 70 78 80 82 88
63 59 55 56 56 59 47 47 48 48 48 50 54 57 63 69 82 87 88 90 88 83 85 87 89 85 77 75 72 74 75 74 75 75 75 74 56 74 77 80 82 82 82
70 66 63 62 57 59 62 60 58 55 50 51 56 60 61 67 80 85 88 88 86 83 87 86 87 77 67 69 72 72 72 72 73 77 79 78 78 82 84 81 83 86 77
69 65 61 59 58 59 65 68 68 64 60 58 59 63 65 66 76 83 87 89 87 92 86 86 74 68 68 65 66 68 73 76 74 78 78 77 81 84 83 78 93 84 92
69 67 65 63 64 66 69 70 66 63 63 62 64 68 71 72 77 82 84 86 91 83 86 88 71 71 66 60 74 72 76 79 79 78 75 74 75 68 64 65 77 84 87
69 69 67 66 67 68 70 59 54 53 56 55 67 70 70 72 80 83 85 87 93 95 93 84 75 71 57 75 74 79 87 80 80 84 79 78 77 75 68 67 70 74 86
77 76 74 73 69 66 55 46 48 49 51 62 68 73 75 75 75 76 91 95 96 94 86 74 74 73 76 75 73 79 90 93 93 92 90 81 64 72 74 77 77 77 78
75 74 72 62 58 46 40 46 43 48 54 67 73 78 81 85 85 90 93 92 94 93 88 81 78 76 70 78 78 84 93 93 90 87 87 86 84 82 75 81 90 86 84
78 78 69 50 39 39 41 45 49 49 62 69 74 75 82 89 93 93 88 92 95 91 84 81 78 84 87 72 73 87 92 87 84 77 80 76 78 75 76 90 94 88 83
60 40 36 38 42 43 48 53 52 53 64 69 72 77 89 94 95 94 96 96 81 85 84 79 83 79 82 70 67 71 98 99 87 83 74 75 74 80 92 95 95 96 84
39 40 45 47 47 51 56 59 60 60 56 70 79 88 91 92 92 93 78 90 87 86 93 95 89 87 81 86 66 64 93 93 88 86 86 83 84 76 73 81 96 96 94
44 45 50 53 55 58 63 67 70 63 64 79 88 91 91 88 86 83 71 82 93 91 97 97 95 96 95 71 72 66 71 72 96 93 90 94 73 72 77 87 88 89 94
49 50 57 59 63 65 68 74 71 74 82 85 89 96 87 93 91 75 81 84 83 95 96 99 98 97 93 93 78 78 78 76 94 91 80 74 73 76 87 82 89 93 94
56 57 61 67 72 71 70 73 78 91 92 92 96 97 90 88 92 97 83 92 97 98 98 98 98 98 94 97 95 91 98 83 89 91 93 92 86 86 88 89 90 94 95
60 63 69 74 75 75 73 75 83 95 88 90 91 99 94 99 96 89 86 88 89 93 97 97 97 100 100 96 85 80 94 91 91 94 97 96 92 89 86 86 88 90 89
66 71 75 77 79 77 79 84 75 80 96 95 91 98 99 98 95 90 90 82 82 85 83 84 95 97 89 84 73 66 66 64 67 94 100 100 100 98 92 92 91 88 89
Wind_Speed
3 6 10 13 14 11 11 7 6 4 3 1 3 4 4 3 4 5 7 7 6 6 6 4 5 4 4 3 4 3 4 2 4 2 4 4 3 2 3 3 3 6 7
6 8 9 10 11 8 7 6 5 5 3 4 3 3 3 4 4 3 5 5 6 6 5 4 3 4 3 5 5 5 4 2 4 3 3 4 5 3 8 4 5 5 4
9 8 8 6 6 7 7 6 6 7 5 5 3 3 4 3 3 2 2 2 4 4 4 5 4 5 4 3 2 3 3 3 2 3 1 4 3 5 2 5 3 6 7
6 7 6 6 7 5 5 7 7 7 5 6 5 5 4 3 2 2 1 2 4 4 4 5 4 3 2 4 3 4 3 3 3 3 2 2 2 2 5 3 4 6 9
7 8 6 7 5 5 7 7 7 6 4 4 4 4 3 1 1 1 2 2 2 4 4 4 5 5 3 3 4 4 4 3 2 1 2 2 3 2 2 6 4 2 2
3 3 4 5 5 3 4 5 7 5 5 6 6 7 6 3 2 2 2 2 2 3 4 3 3 2 1 1 1 2 3 3 3 2 2 2 3 3 4 4 3 5 3
7 7 7 6 4 3 4 4 5 5 5 6 6 6 6 5 4 0 2 1 0 1 2 1 0 1 2 3 3 3 3 3 2 3 3 3 4 3 3 4 5 5 6
6 7 5 3 3 3 4 5 6 5 5 5 5 5 4 2 1 1 2 2 2 3 3 3 4 5 5 4 4 2 3 3 4 5 4 3 4 3 4 4 3 7 5
3 4 7 5 4 4 4 6 6 4 4 4 4 4 1 1 3 3 3 3 4 3 5 6 5 5 6 6 5 3 5 5 5 6 5 4 3 3 3 2 5 4 6
7 7 7 6 5 2 2 3 4 4 3 2 1 2 3 5 5 4 6 5 5 4 5 6 6 5 6 6 5 4 4 4 3 2 3 2 2 2 3 2 2 4 5
6 8 7 5 5 3 4 2 2 2 1 3 3 4 5 5 5 6 6 6 5 5 6 6 5 5 5 3 2 3 2 3 3 3 4 5 4 3 4 4 4 5 4
7 6 6 7 6 6 4 4 4 5 5 5 5 7 6 5 6 6 7 6 6 4 5 4 5 6 3 2 1 3 3 3 3 3 4 5 6 5 5 5 6 6 6
7 6 6 5 3 3 3 3 4 7 7 6 7 7 7 5 7 7 6 5 5 5 5 4 4 5 3 4 3 3 2 2 4 5 5 5 6 6 5 7 7 6 6
5 3 3 3 3 3 6 6 6 5 5 6 7 7 7 7 7 7 6 6 6 6 5 5 5 3 3 3 3 2 1 4 5 5 5 5 6 6 8 7 5 7 6
3 2 2 4 5 5 5 4 4 5 4 5 5 6 6 5 6 6 6 5 5 5 2 4 6 4 3 2 2 2 4 5 6 5 6 6 8 16 12 7 8 8 7
2 3 5 6 6 4 4 4 4 5 4 6 5 5 6 6 6 6 5 3 3 4 5 5 0 4 1 3 3 5 4 6 6 6 6 7 12 11 15 18 19 15 9
4 4 4 5 4 3 2 4 5 6 6 4 4 5 6 6 6 6 3 2 3 0 2 4 3 2 2 4 8 9 4 5 5 6 7 8 6 13 10 14 18 17 19
4 5 3 3 2 3 5 6 7 7 5 4 4 5 6 6 7 6 3 2 1 3 4 2 3 2 2 6 7 8 5 5 6 7 8 8 10 9 12 11 11 9 9
3 3 2 0 3 6 7 6 7 5 4 5 5 6 6 6 6 5 6 6 5 3 2 3 2 2 3 7 5 3 3 5 7 8 8 9 9 15 19 12 12 12 11
3 3 4 3 4 5 4 3 5 6 7 6 6 6 5 6 6 5 4 3 1 3 4 3 2 2 2 6 6 7 2 3 5 6 8 14 13 19 17 9 9 9 10
6 3 3 2 4 4 4 6 6 7 9 6 5 5 5 6 5 5 2 3 3 3 2 1 1 1 1 3 7 10 1 3 5 7 7 7 18 16 17 16 8 10 10
3 3 3 4 4 5 6 7 7 9 10 5 4 4 5 5 5 4 2 2 3 3 1 2 3 2 2 4 6 10 11 12 3 7 7 7 17 16 15 12 17 16 10
2 1 3 4 5 5 5 6 8 9 8 4 4 5 6 5 5 3 2 2 1 1 2 2 2 3 2 3 8 11 11 11 4 5 10 14 15 15 10 16 17 11 7
2 3 4 5 6 4 5 6 6 6 6 9 8 5 5 3 3 2 1 1 1 1 2 2 2 3 2 3 4 4 3 7 5 5 5 6 8 7 7 7 9 6 7
3 3 4 5 6 5 5 6 6 5 8 6 8 4 3 3 2 2 1 1 3 4 3 3 3 2 3 3 6 7 2 3 3 4 3 3 5 6 6 6 7 6 7
3 4 5 5 6 5 5 5 8 7 7 7 5 2 1 1 1 1 2 4 5 6 5 5 6 3 8 7 9 8 8 10 10 3 2 3 4 4 6 6 6 6 7
Wind_Direction
61 43 63 81 85 77 78 72 74 14 74 23 65 50 54 23 33 54 55 59 66 66 64 61 44 32 40 358 352 328 341 327 328 330 308 255 282 99 11 12 18 24 9
75 62 64 68 80 92 96 95 113 116 94 93 90 106 123 78 88 70 59 65 73 71 74 69 46 26 15 19 17 16 330 322 10 341 290 340 318 356 336 354 4 25 353
112 96 90 87 110 118 129 120 96 86 81 101 91 69 57 43 45 36 72 53 88 82 78 67 64 53 50 38 5 355 7 319 316 22 22 332 290 336 339 328 28 13 1
122 128 141 133 123 126 137 129 130 121 121 135 121 144 157 155 184 167 155 83 50 51 73 83 83 81 67 37 350 355 337 349 331 334 11 270 275 308 315 353 3 0 348
159 149 154 134 130 146 142 147 134 130 123 107 107 108 90 78 97 91 129 121 81 63 55 56 52 45 33 18 14 3 0 347 309 300 331 332 317 270 256 305 299 297 320
153 122 119 125 125 130 115 118 112 88 87 94 87 98 106 101 70 17 12 354 46 50 58 65 63 53 45 6 328 320 313 292 288 276 253 248 293 303 286 293 307 299 277
184 175 170 172 154 149 126 83 82 88 84 89 88 91 92 77 72 111 241 317 175 198 224 201 268 239 239 246 236 248 254 244 240 257 262 256 253 251 274 284 304 307 315
200 197 206 81 67 100 66 92 113 112 105 99 92 84 82 101 202 240 167 170 181 209 221 233 232 237 245 261 248 255 264 267 265 274 257 266 257 264 258 260 266 297 290
276 29 66 80 51 55 74 138 149 138 101 84 69 67 57 200 183 172 184 197 215 238 236 232 242 252 264 272 278 265 263 245 252 251 242 241 279 280 265 260 281 274 305
75 77 74 59 59 100 137 99 78 84 84 81 223 185 228 214 201 204 217 219 229 235 238 242 233 241 248 258 257 258 269 279 307 318 347 342 305 317 302 294 253 281 273
110 112 107 85 71 75 53 41 36 44 291 255 252 240 241 229 231 229 226 218 231 239 241 239 244 236 250 275 280 296 4 78 68 20 11 332 322 308 309 281 270 269 255
82 72 55 55 35 17 347 331 316 286 267 262 257 259 264 258 243 242 239 234 242 249 273 298 295 294 315 349 106 107 67 49 19 336 322 303 315 290 276 276 273 264 258
63 53 42 36 14 342 319 297 295 278 263 298 285 294 297 299 264 251 253 253 259 270 287 276 260 252 233 159 115 105 78 7 296 297 298 294 296 295 289 286 282 273 276
65 48 23 349 309 330 357 347 324 322 300 310 310 302 299 302 285 265 251 245 250 273 276 296 281 268 185 148 131 108 354 290 287 284 283 286 282 283 285 287 281 299 296
43 7 318 324 346 339 323 337 350 345 328 323 327 315 307 305 301 284 278 287 287 286 64 332 283 248 158 164 134 322 295 285 287 282 282 280 281 298 300 307 300 289 281
287 337 360 344 331 337 3 352 338 325 322 349 349 342 339 335 325 309 285 302 358 332 338 286 33 232 202 173 308 280 271 279 287 289 287 286 295 289 301 304 299 292 288
287 309 309 298 305 357 347 331 317 324 336 331 341 334 319 305 296 288 322 334 284 25 248 230 133 206 323 295 315 328 323 306 301 296 296 299 305 309 296 295 294 291 284
271 289 294 343 3 353 345 334 339 320 317 319 294 299 299 294 299 312 296 277 283 260 285 95 114 70 13 353 1 32 8 327 305 299 297 300 299 295 301 300 293 289 283
253 240 241 233 1 353 336 323 310 302 283 285 295 308 309 311 313 298 299 292 284 253 163 141 113 60 6 2 9 26 317 308 307 304 305 306 313 306 309 303 283 279 278
157 82 50 13 354 322 326 341 334 324 284 288 297 304 307 302 296 290 268 257 269 153 133 147 72 70 27 347 1 349 277 305 309 314 313 313 317 312 320 335 317 298 295
112 92 50 360 320 333 343 352 338 329 306 288 309 322 325 315 305 309 339 102 118 128 88 54 314 139 38 314 350 347 288 289 322 319 315 312 319 337 340 340 319 333 337
82 53 19 341 334 350 7 345 330 317 308 291 298 305 308 311 316 296 248 198 149 156 166 349 313 291 300 323 325 346 340 336 305 313 309 302 338 340 345 342 341 346 335
53 343 343 339 343 353 14 333 318 322 317 314 326 318 308 312 321 33 95 87 122 117 272 242 272 285 273 286 308 327 331 334 325 323 330 343 341 342 339 345 350 346 339
3 336 347 344 329 331 331 295 301 310 329 322 307 295 297 321 20 359 292 166 141 241 256 268 266 273 285 273 284 294 297 326 347 335 329 331 335 331 338 344 346 346 343
331 328 329 317 301 306 297 295 302 307 318 312 317 311 330 320 28 37 3 269 246 200 219 240 220 211 287 258 299 340 338 328 341 354 349 342 346 343 348 349 346 349 354
319 325 313 309 296 301 306 314 326 323 307 306 308 293 321 66 297 1 311 282 265 277 278 290 206 258 227 274 317 350 1 359 4 15 346 326 331 332 343 348 343 351 356